Tracking 28794 objects as of 19-Apr-2024
HD Live streaming from Space Station
objects crossing your sky now

CSG-2

Track CSG-2 now!
10-day predictions


NORAD ID: 51444
Int'l Code: 2022-008A
Perigee: 628.9 km
Apogee: 630.4 km
Inclination: 97.9 °
Period: 97.2 minutes
Semi major axis: 7000 km
RCS: Unknown
Launch date: January 31, 2022
Source: Italy (IT)
Launch site: AIR FORCE EASTERN TEST RANGE (AFETR)
Your satellite tracking list
Your tracking list is empty




NASA's NSSDC Master Catalog

Two Line Element Set (TLE):
1 51444U 22008A   24110.56212738  .00001556  00000-0  20197-3 0  9991
2 51444  97.8867 294.5660 0001111  84.8651 275.2689 14.82164680119777
Source of the keplerian elements: AFSPC